Content
SEND FEEDBACK

Daily
Averages
Monthly
Summary
United Kingdom

WELLS NEXT THE SEA, ENGLAND


Home > Europe > United Kingdom > England
Elevation: 245 feet     Latitude: 52 51N     Longitude: 000 46E

WEATHER
 
SELECT A DAY
Number of Records: 160,834;   Date Range: 8/10/96 - 9/20/14
 
SHARE

PRINT THIS DATA

[ ← Previous Day ]
WEATHER ALMANAC - JANUARY 20, 2014
[ Next Day → ]
[ °C ]   °F
Weather ElementAverageHighLow
Temperature31.4 °F39.9 °F (1:58 pm)28.4 °F (8:14 pm)
Dewpoint31.4 °F39.9 °F (1:58 pm)28.4 °F (8:14 pm)
Humidity100 %100 % (1:58 am)99 % (2:58 pm)
Barometer29.81 in29.87 in (9:58 pm)29.63 in (1:58 am)
Wind Speed0.9 mph3.5 mph (3:58 am)
Weather ElementAverage
Visibility3.3 mi
Wind DirectionENE (70.8 °)

Weather ElementTotal
Precipitation---
Heating Degree Days30.9 (Base 65)
Averaged from 50 records on January 20, 2014
WEATHER CONDITIONS BREAKOUT
WIND DIRECTION BREAKOUT
WEATHER BY HOUR - JANUARY 20, 2014
[ °C ]   °F
Local TimeTemperatureDewpointHumidityBarometerVisibilityWind DirectionWind SpeedGust SpeedPrecipitationEventsConditions
1:58 AM29.3 °F29.3 °F100 %29.63 in6.2 miEast (80°)2.3 mphClear
2:58 AM29.8 °F29.8 °F100 %29.63 in6.2 miENE (60°)2.3 mphClear
3:58 AM28.9 °F28.9 °F100 %29.64 in6.2 miENE (70°)3.5 mphClear
4:58 AM28.6 °F28.6 °F100 %29.65 in6.2 miEast (90°)2.3 mphClear
5:58 AM29.3 °F29.3 °F100 %29.68 in6.2 miENE (60°)2.3 mphClear
6:58 AM28.6 °F28.6 °F100 %29.69 in6.2 miCalmClear
7:58 AM28.8 °F28.8 °F100 %29.73 in6.2 miCalmClear
8:58 AM28.9 °F28.9 °F100 %29.74 in6.2 miCalmClear
9:58 AM30.4 °F30.4 °F100 %29.75 in6.2 miCalmClear
10:58 AM32.7 °F32.7 °F100 %29.76 in6.2 miCalmClear
11:58 AM35.2 °F35.2 °F100 %29.77 in6.2 miCalmClear
12:58 PM38.3 °F38.3 °F100 %29.77 in6.2 miCalmClear
1:58 PM39.9 °F39.9 °F100 %29.78 in6.2 miCalmClear
2:58 PM39.7 °F39.6 °F99 %29.79 in6.2 miCalmClear
3:58 PM37.9 °F37.9 °F100 %29.81 in6.2 miNW (310°)2.3 mphClear
4:58 PM35.1 °F35.1 °F100 %29.83 in5.6 miWSW (240°)2.3 mphClear
5:58 PM33.6 °F33.6 °F100 %29.83 in3.7 miCalmClear
6:40 PM32.0 °F32.0 °F100 %29.84 in2.5 miCalmClear
6:48 PM32.0 °F32.0 °F100 %29.84 in3.1 miCalmClear
6:58 PM31.3 °F31.3 °F100 %29.86 in5.6 miCalmClear
7:31 PM32.0 °F32.0 °F100 %29.84 in6.2 miCalmPartly Cloudy
7:40 PM30.2 °F30.2 °F100 %29.84 in5.0 miENE (70°)1.2 mphMostly Cloudy
7:55 PM30.2 °F30.2 °F100 %29.85 in2.5 miCalmOvercast
7:56 PM30.2 °F30.2 °F100 %29.85 in1.7 miCalmOvercast
7:57 PM30.2 °F30.2 °F100 %29.85 in1.2 miCalmOvercast
7:58 PM30.2 °F30.2 °F100 %29.86 in1.2 miCalmOvercast
7:59 PM30.2 °F30.2 °F100 %29.85 in1.0 miCalmMist
8:00 PM30.2 °F30.2 °F100 %29.85 in0.7 miCalmMist
8:01 PM30.2 °F30.2 °F100 %29.85 in0.7 miCalmFogLight Freezing Fog
8:02 PM30.2 °F30.2 °F100 %29.85 in0.5 miVariable1.2 mphFogLight Freezing Fog
8:03 PM30.2 °F30.2 °F100 %29.85 in0.5 miSSW (210°)2.3 mphFogLight Freezing Fog
8:05 PM30.2 °F30.2 °F100 %29.85 in0.2 miSSW (210°)2.3 mphFogLight Freezing Fog
8:10 PM30.2 °F30.2 °F100 %29.85 inSW (220°)2.3 mphFogLight Freezing Fog
8:14 PM28.4 °F28.4 °F100 %29.85 in0.2 miSW (220°)2.3 mphFogLight Freezing Fog
8:16 PM28.4 °F28.4 °F100 %29.85 inSSW (210°)2.3 mphFogLight Freezing Fog
8:23 PM28.4 °F28.4 °F100 %29.85 in0.2 miSouth (190°)1.2 mphFogLight Freezing Fog
8:58 PM30.7 °F30.7 °F100 %29.86 in0.2 miCalmFogLight Freezing Fog
9:11 PM32.0 °F32.0 °F100 %29.85 inCalmFogLight Freezing Fog
9:25 PM32.0 °F32.0 °F100 %29.86 inEast (100°)1.2 mphFogLight Freezing Fog
9:36 PM32.0 °F32.0 °F100 %29.86 inCalmFogLight Freezing Fog
9:58 PM31.1 °F31.1 °F100 %29.87 inCalm0.00 inFogLight Freezing Fog
10:13 PM32.0 °F32.0 °F100 %29.86 in0.2 miCalmFogLight Freezing Fog
10:24 PM32.0 °F32.0 °F100 %29.85 inCalmFogLight Freezing Fog
10:27 PM32.0 °F32.0 °F100 %29.85 in0.2 miSSE (160°)1.2 mphFogLight Freezing Fog
10:58 PM30.9 °F30.9 °F100 %29.86 in0.2 miSouth (190°)1.2 mphFogLight Freezing Fog
11:05 PM32.0 °F32.0 °F100 %29.86 inSSE (150°)1.2 mphFogLight Freezing Fog
11:08 PM32.0 °F32.0 °F100 %29.85 in0.2 miSE (140°)1.2 mphFogLight Freezing Fog
11:32 PM32.0 °F32.0 °F100 %29.86 in0.2 miSSW (200°)2.3 mphFogLight Freezing Drizzle
11:58 PM30.2 °F30.2 °F100 %29.87 in0.2 miSouth (190°)2.3 mph0.00 inFogLight Freezing Drizzle
11:59 PM30.2 °F30.2 °F100 %29.86 inSouth (170°)2.3 mphFogLight Freezing Drizzle
Hourly data recorded from EGUL, located miles away from Wells Next the Sea, England







STORIES FROM OUR PARTNERS